Sigfox identifier Datetime Temperature Humidity SNR
0039E050 2019-02-20 13:50:42 22 19 24.8
0039E050 2019-02-20 13:18:21 22 20 24.9
0039E050 2019-02-20 12:46:02 22 21 25.1
0039E050 2019-02-20 12:13:43 22.3 22 25.1
0039E050 2019-02-20 12:12:27 22.1 22 25.2
0039E050 2019-02-20 11:40:07 22.1 24 25.2
0039E050 2019-02-20 11:07:47 22.1 26 25.2
0039E050 2019-02-20 10:35:29 22.1 27 25.3
0039E050 2019-02-20 10:03:12 22.1 29 25.3
0039E050 2019-02-20 09:30:54 22.1 31 25.4
0039E050 2019-02-20 08:58:38 22.1 27 25.6
0039E050 2019-02-20 08:26:22 22.1 27 25.5
0039E050 2019-02-20 07:54:11 22.1 27 25.4
0039E050 2019-02-20 07:21:48 22.2 27 25.5
0039E050 2019-02-20 06:49:27 22.2 27 25.4
0039E050 2019-02-20 06:17:06 22.2 28 25.4
0039E050 2019-02-20 05:44:45 22.2 28 25.4
0039E050 2019-02-20 05:12:25 22.2 28 25.4
0039E050 2019-02-20 04:40:04 22.3 28 25.3
0039E050 2019-02-20 04:07:44 22.3 28 25.3
0039E050 2019-02-20 03:35:22 22.3 28 25.4
0039E050 2019-02-20 03:03:03 22.4 28 25.5
0039E050 2019-02-20 02:30:44 22.4 27 25.6
0039E050 2019-02-20 01:58:25 22.5 28 25.6
0039E050 2019-02-20 01:26:05 22.5 28 25.6
0039E050 2019-02-20 00:53:45 22.5 28 25.6
0039E050 2019-02-20 00:21:24 22.5 28 25.7
0039E050 2019-02-19 23:49:05 22.5 28 25.5
0039E050 2019-02-19 23:16:44 22.5 28 25.5
0039E050 2019-02-19 22:44:22 22.4 28 25.4
0039E050 2019-02-19 22:12:01 22.4 28 25.5
0039E050 2019-02-19 21:39:41 22.3 28 25.4
0039E050 2019-02-19 21:07:21 22.3 28 25.3
0039E050 2019-02-19 20:35:01 22.3 28 25.2
0039E050 2019-02-19 20:02:40 22.2 27 25.2
0039E050 2019-02-19 19:30:18 22.2 28 25
0039E050 2019-02-19 18:57:56 22.2 28 25.1
0039E050 2019-02-19 18:25:33 22.1 28 25.1
0039E050 2019-02-19 17:53:11 22.2 26 25.1
0039E050 2019-02-19 17:20:51 22.2 26 25.2
0039E050 2019-02-19 16:48:30 22.2 26 25.2
0039E050 2019-02-19 16:16:09 22.2 26 25.2
0039E050 2019-02-19 15:43:49 22.2 26 25.2
0039E050 2019-02-19 15:11:28 22.2 26 25.3
0039E050 2019-02-19 14:39:07 22.2 26 25.2
0039E050 2019-02-19 14:06:46 22.2 26 25.1
0039E050 2019-02-19 13:34:25 22.2 26 25
0039E050 2019-02-19 13:02:04 22.3 26 24.9
0039E050 2019-02-19 12:29:44 22.3 27 24.9
0039E050 2019-02-19 11:57:25 22.3 27 24.9
0039E050 2019-02-19 11:25:08 22.4 28 24.8
0039E050 2019-02-19 10:52:52 22.4 27 24.6
0039E050 2019-02-19 10:20:36 22.5 27 24.5
0039E050 2019-02-19 09:48:20 22.9 28 24.4
0039E050 2019-02-19 09:47:05 22.6 28 24.4
0039E050 2019-02-19 09:14:47 23.1 28 24.3
0039E050 2019-02-19 08:42:26 23.2 25 24.3
0039E050 2019-02-19 08:10:06 23.2 25 24.3
0039E050 2019-02-19 07:37:45 23.2 25 24.3
0039E050 2019-02-19 07:05:27 23.2 25 24.3
0039E050 2019-02-19 06:33:08 23.2 25 24.3
0039E050 2019-02-19 06:00:49 23.3 25 24.2
0039E050 2019-02-19 05:28:30 23.3 25 24
0039E050 2019-02-19 04:56:12 23.3 25 24.5
0039E050 2019-02-19 04:23:52 23.3 25 24.9
0039E050 2019-02-19 03:51:34 23.3 25 24.8
0039E050 2019-02-19 03:19:14 23.3 25 24.6
0039E050 2019-02-19 02:46:56 23.4 25 24.4
0039E050 2019-02-19 02:14:37 23.3 25 24.2
0039E050 2019-02-19 01:42:17 23.3 25 24.2
0039E050 2019-02-19 01:09:58 23.3 24 24
0039E050 2019-02-19 00:37:39 23.3 24 23.9
0039E050 2019-02-19 00:05:19 23.3 24 23.8
0039E050 2019-02-18 23:33:00 23.4 24 23.5
0039E050 2019-02-18 23:00:40 23.4 24 23.4
0039E050 2019-02-18 22:28:19 23.3 24 23.3
0039E050 2019-02-18 21:56:00 23.3 24 23.1
0039E050 2019-02-18 21:23:40 23.3 24 23.1
0039E050 2019-02-18 20:51:21 23.3 24 23.1
0039E050 2019-02-18 20:19:01 23.3 24 23.2
0039E050 2019-02-18 19:46:40 23.3 24 23.2
0039E050 2019-02-18 19:14:20 23.2 24 23.1
0039E050 2019-02-18 18:41:59 23.1 24 23.2
0039E050 2019-02-18 18:09:40 22.9 24 23.3
0039E050 2019-02-18 17:37:22 22.5 24 23.3
0039E050 2019-02-18 17:05:05 22.1 25 23.5
0039E050 2019-02-18 16:32:48 21.3 23 23.5
0039E050 2019-02-18 16:00:32 21 23 23.8
0039E050 2019-02-18 15:28:13 20.8 23 23.3
0039E050 2019-02-18 14:55:54 20.7 23 22.7
0039E050 2019-02-18 14:23:35 20.7 23 23
0039E050 2019-02-18 13:51:17 20.6 23 23.2
0039E050 2019-02-18 13:18:56 20.5 23 23.4
0039E050 2019-02-18 12:46:36 20.4 23 23.6
0039E050 2019-02-18 12:14:15 20.2 23 23.8
0039E050 2019-02-18 11:41:55 19.9 23 24
0039E050 2019-02-18 11:09:35 19.7 24 24.6
0039E050 2019-02-18 10:37:16 19.6 24 24.8
0039E050 2019-02-18 10:04:57 19.4 24 25.1
0039E050 2019-02-18 09:32:39 19.2 24 25.1
0039E050 2019-02-18 09:00:20 18.9 25 25.2
0039E050 2019-02-18 08:28:01 18.4 26 25.4
0039E050 2019-02-18 07:23:24 22.7 22 25.5
0039E050 2019-02-18 07:22:09 22.4 22 25.6
0039E050 2019-02-18 06:49:49 22.4 22 25.5
0039E050 2019-02-18 06:17:29 22.4 22 25.5
0039E050 2019-02-18 05:45:13 22.4 22 25.6
0039E050 2019-02-18 05:12:55 22.5 22 25.7
0039E050 2019-02-18 04:40:37 22.5 22 25.7
0039E050 2019-02-18 04:08:18 22.5 22 25.8
0039E050 2019-02-18 03:36:00 22.5 22 25.8
0039E050 2019-02-18 03:03:40 22.6 23 25.8
0039E050 2019-02-18 02:31:20 22.5 23 25.8
0039E050 2019-02-18 01:59:00 22.5 23 25.9
0039E050 2019-02-18 01:26:40 22.5 23 25.9
0039E050 2019-02-18 00:54:22 22.5 23 25.8
0039E050 2019-02-18 00:22:03 22.5 23 25.8
0039E050 2019-02-17 23:49:42 22.5 23 25.8
0039E050 2019-02-17 23:17:28 22.4 23 25.8
0039E050 2019-02-17 22:45:10 22.4 23 25.8
0039E050 2019-02-17 22:12:50 22.4 24 25.8
0039E050 2019-02-17 21:40:29 22.4 24 25.3
0039E050 2019-02-17 21:08:07 22.4 24 25.2
0039E050 2019-02-17 20:35:45 22.3 24 25.3
0039E050 2019-02-17 20:03:23 22.3 24 25.3
0039E050 2019-02-17 19:31:00 22.3 24 25.3
0039E050 2019-02-17 18:58:38 22.3 24 25.2
0039E050 2019-02-17 18:26:16 22.3 23 25.2
0039E050 2019-02-17 17:53:55 22.4 24 25.2
0039E050 2019-02-17 17:21:33 22.4 25 25.2
0039E050 2019-02-17 16:49:15 22.4 25 25.2
0039E050 2019-02-17 16:16:55 22.5 25 25.2
0039E050 2019-02-17 15:44:33 22.4 25 25
0039E050 2019-02-17 15:12:09 22.4 24 25
0039E050 2019-02-17 14:39:47 22.4 25 24.8
0039E050 2019-02-17 14:07:26 22.4 25 24.8
0039E050 2019-02-17 13:35:05 22.4 25 24.9
0039E050 2019-02-17 13:02:46 22.3 25 25.1
0039E050 2019-02-17 12:30:24 22.2 25 24.9
0039E050 2019-02-17 11:58:03 22.2 25 24.9
0039E050 2019-02-17 11:25:44 22.2 25 24.9
0039E050 2019-02-17 10:53:26 22.2 25 25
0039E050 2019-02-17 10:21:05 22.2 25 25.1
0039E050 2019-02-17 09:48:41 22.2 26 25
0039E050 2019-02-17 09:16:19 22.2 26 24.9
0039E050 2019-02-17 08:43:57 22.2 26 25
0039E050 2019-02-17 08:11:35 22.2 26 25.2
0039E050 2019-02-17 07:39:12 22.3 26 25.2
0039E050 2019-02-17 07:06:49 22.3 26 25.1
0039E050 2019-02-17 06:34:26 22.3 26 25.1
0039E050 2019-02-17 06:02:04 22.3 26 25.1
0039E050 2019-02-17 05:29:41 22.3 26 25.1
0039E050 2019-02-17 04:57:19 22.6 26 25.1
0039E050 2019-02-17 04:56:03 22.3 27 25.1
0039E050 2019-02-17 04:23:41 22.4 27 25.2
0039E050 2019-02-17 03:51:18 22.4 27 25.1
0039E050 2019-02-17 03:18:56 22.4 27 25.3
0039E050 2019-02-17 02:46:34 22.4 27 25.3
0039E050 2019-02-17 02:14:13 22.4 27 25.3
0039E050 2019-02-17 01:41:50 22.4 27 25.3
0039E050 2019-02-17 01:09:28 22.4 27 25.3
0039E050 2019-02-17 00:37:06 22.4 28 25.2
0039E050 2019-02-17 00:04:44 22.4 28 25.2
0039E050 2019-02-16 23:32:23 22.4 28 25.5
0039E050 2019-02-16 23:00:01 22.4 27 25.4
0039E050 2019-02-16 22:27:39 22.4 27 25.4
0039E050 2019-02-16 21:55:17 22.4 27 25.4
0039E050 2019-02-16 21:22:56 22.4 27 25.3
0039E050 2019-02-16 20:50:35 22.4 27 25.4
0039E050 2019-02-16 20:18:17 22.4 27 25.5
0039E050 2019-02-16 19:45:52 22.4 27 25.6
0039E050 2019-02-16 19:13:31 22.4 27 25.6
0039E050 2019-02-16 18:41:10 22.4 27 25.7
0039E050 2019-02-16 18:08:50 22.4 27 25.7
0039E050 2019-02-16 17:36:30 22.3 27 25.7
0039E050 2019-02-16 17:04:10 22.4 27 25.8
0039E050 2019-02-16 16:31:49 22.3 27 25.8
0039E050 2019-02-16 15:59:29 22.3 27 25.7
0039E050 2019-02-16 15:27:09 22.3 27 25.6
0039E050 2019-02-16 14:54:48 22.3 27 25.7
0039E050 2019-02-16 14:22:32 22.3 27 25.6
0039E050 2019-02-16 13:50:17 22.3 27 25.5
0039E050 2019-02-16 13:18:05 22.3 27 25.4
0039E050 2019-02-16 12:45:46 22.3 27 25.3
0039E050 2019-02-16 12:13:27 22.4 27 25.3
0039E050 2019-02-16 11:41:06 22.3 27 25.3
0039E050 2019-02-16 11:08:45 22.4 27 25.3
0039E050 2019-02-16 10:36:23 22.4 27 25.1
0039E050 2019-02-16 10:04:02 22.4 27 24.9
0039E050 2019-02-16 09:31:41 22.4 27 24.8
0039E050 2019-02-16 08:59:24 22.4 27 24.9
0039E050 2019-02-16 08:27:05 22.4 27 25
0039E050 2019-02-16 07:54:44 22.5 27 24.8
0039E050 2019-02-16 07:22:24 22.5 28 24.7
0039E050 2019-02-16 06:50:02 22.5 28 24.6
0039E050 2019-02-16 06:17:41 22.5 28 24.4
0039E050 2019-02-16 05:45:19 22.5 28 24.4
0039E050 2019-02-16 05:12:57 22.5 28 24.4
0039E050 2019-02-16 04:40:36 22.5 28 24.3
0039E050 2019-02-16 04:08:14 22.6 28 24.4
0039E050 2019-02-16 03:35:51 22.6 28 24.3
0039E050 2019-02-16 03:03:28 22.6 27 24.4
0039E050 2019-02-16 02:31:06 22.8 27 24.4
0039E050 2019-02-16 02:29:51 22.6 28 24.3
0039E050 2019-02-16 01:57:29 22.5 28 24.3
0039E050 2019-02-16 01:25:09 22.5 28 24.4
0039E050 2019-02-16 00:52:48 22.5 28 24.4
0039E050 2019-02-16 00:20:28 22.5 28 24.4
0039E050 2019-02-15 23:48:06 22.5 28 24.5
0039E050 2019-02-15 23:15:45 22.5 28 24.6
0039E050 2019-02-15 22:43:24 22.5 28 24.7
0039E050 2019-02-15 22:11:02 22.5 28 24.7
0039E050 2019-02-15 21:38:41 22.5 28 24.7
0039E050 2019-02-15 21:06:23 22.5 28 24.8
0039E050 2019-02-15 20:34:02 22.5 28 24.8
0039E050 2019-02-15 20:01:40 22.5 27 24.9
0039E050 2019-02-15 19:29:18 22.5 27 24.9
0039E050 2019-02-15 18:56:57 22.5 27 25.2
0039E050 2019-02-15 18:24:35 22.4 27 25.3
0039E050 2019-02-15 17:52:14 22.4 27 25.3
0039E050 2019-02-15 17:19:52 22.5 27 25.4
0039E050 2019-02-15 16:47:30 22.4 27 25.3
0039E050 2019-02-15 16:15:09 22.4 27 25.2
0039E050 2019-02-15 15:42:48 22.5 27 25.2
0039E050 2019-02-15 15:10:27 22.4 27 25.2
0039E050 2019-02-15 14:38:06 22.4 27 25.1
0039E050 2019-02-15 14:05:46 22.4 27 25.1
0039E050 2019-02-15 13:33:27 22.4 27 25
0039E050 2019-02-15 13:01:09 22.4 28 25.1
0039E050 2019-02-15 12:28:51 22.4 28 25.1
0039E050 2019-02-15 11:56:33 22.4 28 25.1
0039E050 2019-02-15 11:24:12 22.4 28 24.9
0039E050 2019-02-15 10:51:51 22.3 28 24.7
0039E050 2019-02-15 10:19:25 22.4 28 24.6
0039E050 2019-02-15 09:47:03 22.4 28 24.5
0039E050 2019-02-15 09:14:44 22.4 28 24.4
0039E050 2019-02-15 08:42:25 22.3 28 24.4
0039E050 2019-02-15 08:10:04 22.3 28 24.3
0039E050 2019-02-15 07:37:42 22.3 28 24.2
0039E050 2019-02-15 07:05:18 22.4 28 24.1
0039E050 2019-02-15 06:32:56 22.4 29 23.8
0039E050 2019-02-15 06:00:34 22.4 29 23.6
0039E050 2019-02-15 05:28:13 22.4 29 23.2
0039E050 2019-02-15 04:55:53 22.4 29 22.8
0039E050 2019-02-15 04:23:32 22.4 29 22.7
0039E050 2019-02-15 03:51:11 22.4 29 22.5
0039E050 2019-02-15 03:18:49 22.4 30 22.3
0039E050 2019-02-15 02:46:27 22.4 30 21.8
0039E050 2019-02-15 02:14:05 22.3 30 21.5
0039E050 2019-02-15 01:41:44 22.3 30 21.3
0039E050 2019-02-15 01:09:26 22.2 30 21.2
0039E050 2019-02-15 00:37:09 22.1 30 21.1
0039E050 2019-02-15 00:04:47 22.3 30 20.8
0039E050 2019-02-15 00:03:34 22 30 20.6
0039E050 2019-02-14 23:31:11 21.9 30 20.1
0039E050 2019-02-14 22:58:48 21.8 30 20
0039E050 2019-02-14 22:26:26 21.5 30 20.2
0039E050 2019-02-14 21:54:05 21.2 31 20.5
0039E050 2019-02-14 21:21:43 20.9 31 20.4
0039E050 2019-02-14 20:49:21 20.4 31 20.4
0039E050 2019-02-14 20:16:59 19.7 32 20.3
0039E050 2019-02-14 19:44:37 18.6 33 20.5
0039E050 2019-02-14 19:12:17 16.9 33 20.3
0039E050 2019-02-14 18:39:56 18.5 26 20.5
0039E050 2019-02-14 17:35:18 22.2 25 20.6
0039E050 2019-02-14 17:02:56 22.2 25 20.9
0039E050 2019-02-14 16:30:36 22.1 24 21
0039E050 2019-02-14 15:58:14 21.9 24 20.9
0039E050 2019-02-14 15:25:52 21.8 24 21.2
0039E050 2019-02-14 14:53:30 21.8 24 21.6
0039E050 2019-02-14 14:21:07 21.7 24 21.8
0039E050 2019-02-14 13:48:44 21.6 24 22
0039E050 2019-02-14 13:16:23 21.6 24 22
0039E050 2019-02-14 12:44:03 21.4 24 22.2
0039E050 2019-02-14 12:11:41 21.4 24 22.4
0039E050 2019-02-14 11:39:21 21.3 24 22.5
0039E050 2019-02-14 11:06:59 21.3 25 22.6
0039E050 2019-02-14 10:34:37 21.1 25 22.9
0039E050 2019-02-14 10:02:15 21 24 23.1
0039E050 2019-02-14 09:29:54 21 24 23.3
0039E050 2019-02-14 08:57:33 20.9 24 23.4
0039E050 2019-02-14 08:25:12 20.8 25 23.5
0039E050 2019-02-14 07:52:52 20.9 25 23.3
0039E050 2019-02-14 07:20:31 20.9 26 23.5
0039E050 2019-02-14 06:48:11 20.9 26 23.5
0039E050 2019-02-14 06:15:49 20.9 26 23.4
0039E050 2019-02-14 05:43:29 20.9 26 23.3
0039E050 2019-02-14 05:11:05 20.9 26 23.3
0039E050 2019-02-14 04:38:42 20.9 26 23.1
0039E050 2019-02-14 04:06:20 20.9 26 23
0039E050 2019-02-14 03:33:58 20.9 26 22.8
0039E050 2019-02-14 03:01:36 20.9 25 22.7
0039E050 2019-02-14 02:29:16 20.9 25 22.8
0039E050 2019-02-14 01:57:00 20.9 25 22.8
0039E050 2019-02-14 01:24:42 21 25 22.6
0039E050 2019-02-14 00:52:25 20.9 25 22.4
0039E050 2019-02-14 00:20:09 21 25 22.4
0039E050 2019-02-13 23:47:54 21 25 22.5
0039E050 2019-02-13 23:15:34 21 25 22.4
0039E050 2019-02-13 22:43:15 21 25 22.2
0039E050 2019-02-13 22:10:56 21.1 25 22.3
0039E050 2019-02-13 21:38:37 21.4 25 23
0039E050 2019-02-13 21:37:21 21.1 25 23.6
0039E050 2019-02-13 21:05:02 21.2 25 23.5
0039E050 2019-02-13 20:32:41 21.3 25 23.4
0039E050 2019-02-13 20:00:20 21.3 25 23.4
0039E050 2019-02-13 19:27:59 21.4 26 23.3
0039E050 2019-02-13 18:55:38 21.4 26 23.4
0039E050 2019-02-13 18:23:17 21.5 26 23.3
0039E050 2019-02-13 17:50:55 21.5 27 23.2
0039E050 2019-02-13 17:18:35 21.5 26 23.2
0039E050 2019-02-13 16:46:15 21.4 27 23.3
0039E050 2019-02-13 16:13:54 21.4 26 23.3
0039E050 2019-02-13 15:41:33 21.3 26 23.5
0039E050 2019-02-13 15:09:12 21.2 25 23.7
0039E050 2019-02-13 14:36:51 21.2 25 23.8
0039E050 2019-02-13 14:04:30 21.2 25 23.9
0039E050 2019-02-13 13:32:09 21.2 25 23.8
0039E050 2019-02-13 12:59:50 21.2 25 23.8
0039E050 2019-02-13 12:27:26 21.2 24 23.9
0039E050 2019-02-13 11:55:04 21.2 25 24
0039E050 2019-02-13 11:22:44 21.1 25 24.2
0039E050 2019-02-13 10:50:23 21 24 24.1
0039E050 2019-02-13 10:18:02 21 23 24.1
0039E050 2019-02-13 09:45:44 20.9 23 24.2
0039E050 2019-02-13 09:13:24 20.9 22 24
0039E050 2019-02-13 08:41:02 20.8 22 23.5
0039E050 2019-02-13 08:08:41 20.8 21 22.8
0039E050 2019-02-13 07:36:21 20.9 20 22.6
0039E050 2019-02-13 07:04:00 20.9 20 22.6
0039E050 2019-02-13 06:31:40 20.9 19 23.3
0039E050 2019-02-13 05:59:19 20.9 20 23.2
0039E050 2019-02-13 05:27:00 20.9 20 23.1
0039E050 2019-02-13 04:54:39 20.9 20 23.1
0039E050 2019-02-13 04:22:16 20.9 20 23.1
0039E050 2019-02-13 03:49:54 20.9 19 23
0039E050 2019-02-13 03:17:33 20.9 19 23
0039E050 2019-02-13 02:45:13 20.9 19 22.8
0039E050 2019-02-13 02:12:51 20.9 19 22.6
0039E050 2019-02-13 01:40:29 20.9 19 22.4
0039E050 2019-02-13 01:08:07 21 19 22.5
0039E050 2019-02-13 00:35:44 21 19 22.3
0039E050 2019-02-13 00:03:21 21 20 22.3
0039E050 2019-02-12 23:30:58 21 20 22.4
0039E050 2019-02-12 22:58:34 21.1 20 22.3
0039E050 2019-02-12 22:26:11 21.1 20 22.5
0039E050 2019-02-12 21:53:48 21.2 20 22.1
0039E050 2019-02-12 21:21:26 21.3 21 22
0039E050 2019-02-12 20:49:03 21.4 21 21.9
0039E050 2019-02-12 20:16:41 21.5 21 22
0039E050 2019-02-12 19:44:17 21.5 21 22
0039E050 2019-02-12 19:11:54 21.8 20 22.8
0039E050 2019-02-12 19:10:39 21.6 20 22.8
0039E050 2019-02-12 18:38:16 21.6 20 22.8
0039E050 2019-02-12 18:05:54 21.6 20 22.7
0039E050 2019-02-12 17:33:30 21.7 20 21.7
0039E050 2019-02-12 17:01:07 21.8 19 21.7
0039E050 2019-02-12 16:28:43 21.9 19 22.6
0039E050 2019-02-12 15:56:21 21.9 20 22.5
0039E050 2019-02-12 15:23:58 21.9 20 22.4
0039E050 2019-02-12 14:51:34 21.7 20 22.4
0039E050 2019-02-12 14:19:11 21.5 20 22.3
0039E050 2019-02-12 13:46:48 21.4 20 22.3
0039E050 2019-02-12 13:14:25 21.4 20 22.3
0039E050 2019-02-12 12:42:02 21.4 21 22.2
0039E050 2019-02-12 12:09:38 21.3 21 22.2
0039E050 2019-02-12 11:37:16 21.3 21 22.2
0039E050 2019-02-12 11:04:52 21.3 22 22.1
0039E050 2019-02-12 10:32:29 21.3 23 21.9
0039E050 2019-02-12 10:00:05 21.1 23 21.8
0039E050 2019-02-12 09:27:45 21.1 23 21.3
0039E050 2019-02-12 08:55:23 21 24 21.3
0039E050 2019-02-12 08:22:59 20.9 24 21.3
0039E050 2019-02-12 07:50:36 20.9 25 21.3
0039E050 2019-02-12 07:18:14 20.9 26 21.1
0039E050 2019-02-12 06:45:51 20.9 26 21
0039E050 2019-02-12 06:13:29 20.9 26 19.4
0039E050 2019-02-12 05:41:07 20.9 27 19.1
0039E050 2019-02-12 05:08:44 20.9 27 19.2
0039E050 2019-02-12 04:36:22 20.9 27 19.3
0039E050 2019-02-12 04:03:59 20.9 27 19.4
0039E050 2019-02-12 03:31:36 20.9 27 19.5
0039E050 2019-02-12 02:59:14 21 27 16.2
0039E050 2019-02-12 02:26:52 21 27 16.3
0039E050 2019-02-12 01:54:30 21 27 16.4
0039E050 2019-02-12 01:22:11 21 27 16.6
0039E050 2019-02-12 00:49:47 21 27 16.3
0039E050 2019-02-12 00:17:26 21.1 27 16.4
0039E050 2019-02-11 23:45:03 21.1 27 16.1
0039E050 2019-02-11 23:12:44 21.1 27 16.3
0039E050 2019-02-11 22:40:23 21.2 27 15.5
0039E050 2019-02-11 22:08:02 21.2 27 15.2
0039E050 2019-02-11 21:35:42 21.3 27 15.3
0039E050 2019-02-11 21:03:21 21.3 27 15.5
0039E050 2019-02-11 20:31:02 21.5 27 15.5
0039E050 2019-02-11 19:58:45 21.5 27 15.8
0039E050 2019-02-11 19:26:27 21.6 27 16
0039E050 2019-02-11 18:54:05 21.7 27 16.8
0039E050 2019-02-11 18:21:43 21.9 27 16.1
0039E050 2019-02-11 17:49:22 22.1 28 16.8
0039E050 2019-02-11 17:17:00 22.3 28 15.9
0039E050 2019-02-11 16:44:37 22.4 31 0